This is the latest recevied weather packets stored in our database for station/object EW1958. If no packets are shown the sender has not sent any weather packets the latest 10 day(s).
| Time | Temp. | Humidity | Pressure | Rain* | Wind** | Luminosity | Snow |
|---|---|---|---|---|---|---|---|
| 1778207641 | 15.56° C | 73% | 1019.6 hPa | 0 mm | - | - | - |
| 1778207340 | 15.56° C | 73% | 1019.7 hPa | 0 mm | - | - | - |
| 1778207037 | 15.56° C | 74% | 1019.8 hPa | 0 mm | - | - | - |
| 1778206867 | 15.56° C | 74% | 1019.8 hPa | 0 mm | - | - | - |
| 1778206432 | 15.56° C | 74% | 1019.7 hPa | 0 mm | - | - | - |
| 1778206127 | 15.56° C | 72% | 1019.8 hPa | 0 mm | - | - | - |
| 1778205826 | 15.56° C | 73% | 1019.8 hPa | 0 mm | - | - | - |
| 1778205525 | 15.56° C | 73% | 1019.8 hPa | 0 mm | - | - | - |
| 1778205224 | 15.56° C | 73% | 1019.7 hPa | 0 mm | - | - | - |
| 1778204925 | 15.56° C | 71% | 1019.8 hPa | 0 mm | - | - | - |
| 1778204624 | 15.56° C | 71% | 1019.8 hPa | 0 mm | - | - | - |
| 1778204450 | 15.56° C | 71% | 1019.8 hPa | 0 mm | - | - | - |
| 1778204018 | 15.56° C | 70% | 1019.8 hPa | 0 mm | - | - | - |
| 1778203717 | 15.56° C | 70% | 1019.9 hPa | 0 mm | - | - | - |
| 1778203544 | 15.56° C | 70% | 1020 hPa | 0 mm | - | - | - |
| 1778203114 | 15.56° C | 69% | 1020 hPa | 0 mm | - | - | - |
| 1778202962 | 15.56° C | 71% | 1020.2 hPa | 0 mm | - | - | - |
| 1778202514 | 16.11° C | 70% | 1020.2 hPa | 0 mm | - | - | - |
| 1778202216 | 16.11° C | 70% | 1020.3 hPa | 0 mm | - | - | - |
| 1778201610 | 16.11° C | 71% | 1020.3 hPa | 0 mm | - | - | - |
| 1778201309 | 16.11° C | 72% | 1020.4 hPa | 0 mm | - | - | - |
| 1778201006 | 16.11° C | 69% | 1020.3 hPa | 0 mm | - | - | - |
| 1778200857 | 16.11° C | 68% | 1020.4 hPa | 0 mm | - | - | - |
| 1778200556 | 16.11° C | 69% | 1020.4 hPa | 0 mm | - | - | - |
| 1778200106 | 16.11° C | 70% | 1020.4 hPa | 0 mm | - | - | - |
* Rain latest hour (hover to see other rain measurements)
** Current wind speed in m/s (hover to see current wind gust speed)